Voltar ao catálogo

PRAETORIAN SDA_612

AtivoMilitarPO
NORAD 65575·PAYLOAD·🇺🇸 United States

Lançado Sep 10, 2025 de Vandenberg Space Force Base

Loading…

Próximas Passagens (próximas 24 horas)

TLE

AtualizadoSource: Space-Track

Época: Sep 14, 2026, 20:09 UTC

1 65575U 25203L   26257.83983318  .00000320  00000-0  27286-3 0  9998
2 65575  81.3006 287.3758 0008098 313.7916  46.2571 13.85039116 51124

Acompanhe PRAETORIAN SDA_612 em tempo real com AllMySat

Download on the App Store